Kimball, NE

6:01 AM MST on November 18, 2017 (GMT -0700)
Kimball Municipal-Arraj

Weather History for KIBM - December, 2013

Change the Weather History Date:

Wednesday, December 4, 2013

  Actual Average (KSNY) Record (KSNY)
Temperature  
Mean Temperature 4 °F -  
Max Temperature 10 °F 44 °F 68 °F (1989)
Min Temperature -4 °F 18 °F -5 °F (2009)
Degree Days  
Heating Degree Days 62    
Moisture  
Dew Point -3 °F    
Average Humidity 72    
Maximum Humidity 85    
Minimum Humidity 63    
Precipitation  
Precipitation 0.00 in - - ()
Sea Level Pressure  
Sea Level Pressure 29.80 in    
Wind  
Wind Speed 20 mph (NNW)    
Max Wind Speed 29 mph    
Max Gust Speed 37 mph    
Visibility 6 miles    
Events Snow    
Averages and records for this station are not official NWS values.
T = Trace of Precipitation, MM = Missing Value Source: NWS Daily Summary

Daily Weather History Graph

Daily Weather History Graph

Search for Another Location

Airport or City:

Trip Planner

Search our weather history database for the weather conditions in past years. The results will help you decide how hot, cold, wet, or windy it might be!

Date:

Astronomy

Dec. 04, 2013 Rise Set
Actual Time 8:04 AM CST 5:25 PM CST
Civil Twilight 7:33 AM CST 5:56 PM CST
Nautical Twilight 6:58 AM CST 6:31 PM CST
Astronomical Twilight 6:25 AM CST 7:04 PM CST
Moon 9:33 AM CST (12/4) 7:39 PM CST (12/4)
Length of Visible Light 10h 23m
Length of Day
9h 21m
Waxing Crescent, 4% of the Moon is Illuminated
Dec 4
Waxing Crescent
Dec 9
First Quarter
Dec 17
Full
Dec 25
Last Quarter
Jan 1
New

Hourly Weather History & Observations

Time (CST) Temp. Windchill Dew Point Humidity Pressure Visibility Wind Dir Wind Speed Gust Speed Precip Events Conditions
12:15 AM 11.7 °F -7.4 °F 5.9 °F 78% 29.73 in 5.0 mi North 21.9 mph 27.6 mph N/A Snow Light Snow
12:26 AM 10.4 °F -7.7 °F 6.8 °F 85% 29.73 in 5.0 mi NNW 18.4 mph 25.3 mph N/A Snow Light Snow
12:35 AM 11.3 °F -6.5 °F 5.7 °F 78% 29.73 in 5.0 mi NNW 18.4 mph 25.3 mph N/A Snow Light Snow
12:55 AM 10.6 °F -9.7 °F 4.8 °F 78% 29.73 in 3.0 mi NNW 24.2 mph 28.8 mph N/A Snow Light Snow
1:15 AM 10.4 °F -9.1 °F 4.5 °F 77% 29.72 in 7.0 mi NNW 21.9 mph 31.1 mph N/A Snow Light Snow
1:35 AM 10.4 °F -9.5 °F 4.5 °F 77% 29.72 in 5.0 mi North 23.0 mph 27.6 mph N/A Snow Light Snow
1:50 AM 10.0 °F -9.5 °F 3.9 °F 76% 29.72 in 4.0 mi NNW 21.9 mph 29.9 mph N/A Snow Light Snow
2:15 AM 9.5 °F -8.8 °F 3.7 °F 77% 29.72 in 10.0 mi North 18.4 mph 24.2 mph N/A Snow Light Snow
2:26 AM 8.6 °F -8.9 °F 3.2 °F 79% 29.71 in 10.0 mi North 16.1 mph - N/A Snow Light Snow
2:35 AM 9.5 °F -8.3 °F 4.1 °F 79% 29.70 in 7.0 mi North 17.3 mph - N/A Snow Light Snow
2:55 AM 9.0 °F -9.5 °F 3.9 °F 80% 29.72 in 2.5 mi North 18.4 mph - N/A Snow Light Snow
3:15 AM 8.6 °F -10.5 °F 3.2 °F 79% 29.72 in 3.0 mi NNW 19.6 mph 24.2 mph N/A Snow Light Snow
3:35 AM 8.4 °F -9.7 °F 3.2 °F 79% 29.72 in 3.0 mi NNW 17.3 mph - N/A Snow Light Snow
3:55 AM 7.7 °F -11.2 °F 2.3 °F 79% 29.71 in 3.0 mi NNW 18.4 mph 25.3 mph N/A Snow Light Snow
4:05 AM 6.8 °F -14.3 °F 1.4 °F 79% 29.70 in 3.0 mi NNW 23.0 mph - N/A Snow Light Snow
4:15 AM 7.5 °F -11.9 °F 1.8 °F 77% 29.70 in 4.0 mi NNW 19.6 mph - N/A Snow Light Snow
4:35 AM 7.3 °F -11.7 °F 1.4 °F 77% 29.68 in 4.0 mi NNW 18.4 mph 23.0 mph N/A Snow Light Snow
4:55 AM 6.8 °F -13.4 °F 0.9 °F 77% 29.70 in 4.0 mi NNW 20.7 mph 26.5 mph N/A Snow Light Snow
5:15 AM 6.6 °F -13.1 °F 0.7 °F 77% 29.72 in 3.0 mi NNW 19.6 mph 27.6 mph N/A Snow Light Snow
5:25 AM 6.8 °F -13.8 °F -0.4 °F 72% 29.73 in 5.0 mi NNW 21.9 mph 25.3 mph N/A Snow Light Snow
5:35 AM 6.4 °F -13.8 °F -0.2 °F 74% 29.73 in 4.0 mi NNW 20.7 mph 28.8 mph N/A Snow Light Snow
5:55 AM 5.9 °F -15.0 °F -0.2 °F 76% 29.70 in 2.0 mi NNW 21.9 mph 27.6 mph N/A Snow Light Snow
6:15 AM 5.7 °F -15.7 °F -0.4 °F 76% 29.69 in 2.0 mi NNW 23.0 mph 28.8 mph N/A Snow Light Snow
6:35 AM 5.5 °F -14.5 °F -0.0 °F 78% 29.71 in 1.5 mi NNW 19.6 mph 26.5 mph N/A Snow Light Snow
6:45 AM 5.0 °F -16.2 °F -0.4 °F 78% 29.70 in 3.0 mi NW 21.9 mph 29.9 mph N/A Snow Light Snow
6:55 AM 5.4 °F -15.7 °F -1.3 °F 74% 29.71 in 5.0 mi NNW 21.9 mph 29.9 mph N/A   Haze
7:15 AM 5.4 °F -12.5 °F -1.3 °F 74% 29.72 in 5.0 mi NW 15.0 mph 23.0 mph N/A Snow Light Snow
7:35 AM 5.0 °F -15.2 °F -1.7 °F 74% 29.72 in 5.0 mi NW 19.6 mph 24.2 mph N/A Snow Light Snow
7:46 AM 5.0 °F -15.2 °F -2.2 °F 72% 29.73 in 7.0 mi NW 19.6 mph 26.5 mph N/A   Overcast
7:55 AM 5.0 °F -14.2 °F -1.7 °F 74% 29.72 in 10.0 mi NNW 17.3 mph 25.3 mph N/A   Overcast
8:15 AM 4.6 °F -16.2 °F -2.4 °F 73% 29.72 in 3.0 mi NW 20.7 mph 31.1 mph N/A Snow Light Snow
8:35 AM 4.5 °F -14.3 °F -1.7 °F 76% 29.77 in 1.2 mi NW 16.1 mph 26.5 mph N/A Snow Light Snow
8:55 AM 4.8 °F -16.9 °F -2.2 °F 73% 29.76 in 3.0 mi NNW 23.0 mph 27.6 mph N/A Snow Light Snow
9:15 AM 4.8 °F -16.4 °F -1.7 °F 75% 29.73 in 3.0 mi NNW 21.9 mph 26.5 mph N/A Snow Light Snow
9:35 AM 5.0 °F -14.2 °F -1.5 °F 75% 29.74 in 1.8 mi NNW 17.3 mph 20.7 mph N/A Snow Light Snow
9:55 AM 5.0 °F -17.9 °F -2.0 °F 73% 29.79 in 1.8 mi NW 26.5 mph 32.2 mph N/A Snow Light Snow
10:15 AM 4.6 °F -17.6 °F -2.9 °F 71% 29.72 in 2.5 mi North 24.2 mph 32.2 mph N/A Snow Light Snow
10:35 AM 5.5 °F -16.8 °F -1.8 °F 72% 29.77 in 2.5 mi NNW 25.3 mph 31.1 mph N/A Snow Light Snow
10:55 AM 4.8 °F -18.5 °F -3.1 °F 70% 29.78 in 1.8 mi NNW 27.6 mph 33.4 mph N/A Snow Light Snow
11:15 AM 5.5 °F -17.6 °F -2.2 °F 70% 29.78 in 3.0 mi NNW 27.6 mph 33.4 mph N/A   Haze
11:35 AM 5.4 °F -18.2 °F -2.4 °F 70% 29.75 in 2.0 mi NNW 28.8 mph 36.8 mph N/A   Haze
11:55 AM 5.5 °F -16.4 °F -2.4 °F 70% 29.78 in 3.0 mi NNW 24.2 mph 33.4 mph N/A   Haze
12:15 PM 5.5 °F -17.2 °F -2.7 °F 69% 29.78 in 5.0 mi NNW 26.5 mph 34.5 mph N/A   Haze
12:35 PM 5.5 °F -17.2 °F -2.0 °F 71% 29.79 in 4.0 mi NNW 26.5 mph 34.5 mph N/A   Haze
12:55 PM 5.7 °F -17.3 °F -2.6 °F 69% 29.76 in 2.5 mi NNW 27.6 mph 35.7 mph N/A   Haze
1:15 PM 5.4 °F -17.4 °F -3.3 °F 68% 29.77 in 4.0 mi NNW 26.5 mph 33.4 mph N/A   Haze
1:35 PM 5.9 °F -15.9 °F -2.2 °F 69% 29.78 in 4.0 mi NNW 24.2 mph 33.4 mph N/A   Haze
1:55 PM 5.9 °F -16.7 °F -2.2 °F 69% 29.79 in 4.0 mi NNW 26.5 mph 33.4 mph N/A   Haze
2:15 PM 5.4 °F -17.0 °F -3.5 °F 67% 29.81 in 10.0 mi NNW 25.3 mph 33.4 mph N/A   Overcast
2:35 PM 5.5 °F -16.4 °F -2.7 °F 69% 29.80 in 5.0 mi NNW 24.2 mph 33.4 mph N/A   Haze
2:55 PM 5.5 °F -16.4 °F -2.4 °F 70% 29.80 in 4.0 mi NNW 24.2 mph 34.5 mph N/A   Haze
3:15 PM 5.0 °F -17.5 °F -2.2 °F 72% 29.81 in 2.0 mi NNW 25.3 mph 33.4 mph N/A Snow Light Snow
3:35 PM 5.0 °F -17.9 °F -3.3 °F 69% 29.81 in 3.0 mi NNW 26.5 mph 32.2 mph N/A   Haze
3:55 PM 5.0 °F -17.5 °F -4.0 °F 66% 29.81 in 10.0 mi NNW 25.3 mph 33.4 mph N/A   Mostly Cloudy
4:15 PM 4.6 °F -15.2 °F -4.4 °F 66% 29.83 in 10.0 mi NNW 18.4 mph 26.5 mph N/A   Scattered Clouds
4:35 PM 4.1 °F -18.3 °F -5.1 °F 66% 29.85 in 10.0 mi NNW 24.2 mph 29.9 mph N/A   Clear
4:55 PM 3.2 °F -16.5 °F -5.1 °F 68% 29.86 in 10.0 mi NNW 17.3 mph 28.8 mph N/A   Clear
5:15 PM 2.8 °F -18.1 °F -6.0 °F 67% 29.86 in 10.0 mi NNW 19.6 mph 25.3 mph N/A   Clear
5:35 PM 2.1 °F -19.0 °F -6.7 °F 67% 29.85 in 10.0 mi NNW 19.6 mph 24.2 mph N/A   Clear
5:55 PM 1.8 °F -19.5 °F -6.9 °F 67% 29.86 in 10.0 mi NW 19.6 mph 26.5 mph N/A   Clear
6:15 PM 1.6 °F -18.6 °F -7.1 °F 67% 29.88 in 10.0 mi NNW 17.3 mph 25.3 mph N/A   Clear
6:35 PM 1.0 °F -18.0 °F -7.2 °F 68% 29.89 in 10.0 mi NNW 15.0 mph - N/A   Clear
6:55 PM 1.2 °F -19.1 °F -7.6 °F 67% 29.90 in 10.0 mi NNW 17.3 mph 25.3 mph N/A   Clear
7:15 PM 1.0 °F -18.0 °F -8.0 °F 66% 29.91 in 10.0 mi NNW 15.0 mph 19.6 mph N/A   Clear
7:35 PM 0.7 °F -18.5 °F -8.3 °F 66% 29.92 in 10.0 mi NNW 15.0 mph - N/A   Clear
7:50 PM 0.3 °F -19.6 °F -8.5 °F 66% 29.92 in 10.0 mi NNW 16.1 mph - N/A   Clear
8:15 PM 0.5 °F -19.4 °F -9.4 °F 63% 29.94 in 10.0 mi NNW 16.1 mph 23.0 mph N/A   Scattered Clouds
8:35 PM 0.1 °F -17.7 °F -9.4 °F 64% 29.95 in 10.0 mi NW 12.7 mph 18.4 mph N/A   Mostly Cloudy
8:55 PM -0.2 °F -18.9 °F -9.4 °F 65% 29.96 in 10.0 mi NW 13.8 mph - N/A   Mostly Cloudy
9:15 PM -1.1 °F -19.3 °F -10.1 °F 66% 29.96 in 10.0 mi NW 12.7 mph - N/A   Clear
9:35 PM -1.8 °F -19.4 °F -10.5 °F 67% 29.97 in 10.0 mi NW 11.5 mph - N/A   Clear
9:55 PM -1.7 °F -18.3 °F -10.5 °F 66% 29.98 in 10.0 mi NW 10.4 mph - N/A   Clear
10:15 PM -1.8 °F -20.2 °F -10.3 °F 67% 29.97 in 10.0 mi NW 12.7 mph - N/A   Clear
10:35 PM -2.7 °F -22.1 °F -10.7 °F 69% 29.97 in 10.0 mi NW 13.8 mph - N/A   Clear
10:55 PM -3.6 °F -24.0 °F -11.2 °F 70% 29.98 in 10.0 mi NW 15.0 mph - N/A   Clear
11:15 PM -4.0 °F -23.7 °F -11.7 °F 69% 29.98 in 10.0 mi NW 13.8 mph - N/A   Clear
11:35 PM -4.4 °F -24.2 °F -12.1 °F 69% 29.99 in 10.0 mi WNW 13.8 mph - N/A   Clear
11:55 PM -3.6 °F -25.4 °F -11.6 °F 69% 29.99 in 10.0 mi WNW 17.3 mph - N/A   Clear